Location: Caramacate
(10.0289°N, 66.7587°W)
Time: 21:37:12
(UTC+00:00)

GP-B - Pass Details

Date: 05 August 2024
Orbit: 623 x 628 km, 89.8° (Epoch: 07 September)

Event Time Altitude Azimuth Distance (km) Brightness Sun altitude
Rises 23:07:56 0° 18° (NNE) 2,895 6.5 -5.4°
Reaches altitude 10° 23:10:18 10° 28° (NNE) 1,989 5.6 -5.9°
Maximum altitude 23:14:15 33° 92° (E) 1,039 3.7 -6.8°
Drops below altitude 10° 23:18:12 10° 157° (SSE) 1,988 5.3 -7.8°
Sets 23:20:34 0° 167° (SSE) 2,894 6.2 -8.3°
